Tracking 28520 objects as of 29-Feb-2024
HD Live streaming from Space Station
objects crossing your sky now

ARIANE 42L R/B

Track ARIANE 42L R/B now!


NORAD ID: 22655
Int'l Code: 1993-031C
Perigee: 278.1 km
Apogee: 27,919.4 km
Inclination: 5.2 °
Period: 485.8 minutes
Semi major axis: 20469 km
RCS: 22.5158 m2 (large)
Launch date: May 12, 1993
Source: France (FR)
Launch site: FRENCH GUIANA (FRGUI)

Note: This is a ROCKET BODY
Your satellite tracking list
Your tracking list is empty




NASA's NSSDC Master Catalog

Two Line Element Set (TLE):
1 22655U 93031C   24059.52429911  .00007948  00000-0  22081-2 0  9992
2 22655   5.1723  54.3364 6751762  89.1006 341.5958  2.96438917290693
Source of the keplerian elements: AFSPC